Flag for U.S.A. Weather past 2 weeks in Aspen, Colorado, U.S.A.

Now
65 °F

Sunny.


Feels Like: 65 °F
Forecast: 32 / 60 °F
Wind: 13 mph from Northwest

Location: Aspen-Pitkin County Airport


UV Index: 5 (Moderate)

Visibility: 10 mi


Pressure: 29.83 "Hg

Humidity: 17%

Dew point: 19 °F

Location of AspenLocation

Historic Weather in Aspen

°F

Aspen temperature yesterday

Maximum temperature yesterday: 56 °F (at 3:53 PM)
Minimum temperature yesterday: 27 °F (at 5:53 AM)
Average temperature yesterday: 42 °F

Past Weeks' High & Low Weather Summary

 TemperatureHumidityPressure
High65 °F (Apr 18, 1:53 PM)97% (Apr 13, 7:53 AM)30.30 "Hg (Apr 13, 7:53 AM)
Low16 °F (Apr 14, 6:53 AM)11% (Apr 10, 2:53 PM)29.47 "Hg (Apr 13, 9:53 AM)
Average39 °F51%29.92 "Hg
* Reported Apr 3 1:53 PM — Apr 18 1:53 PM, Aspen, Weather by CustomWeather, © 2014

Note: Actual official high and low records may vary slightly from our data, if they occured in-between our weather recording intervals... More about our weather records

Advertising

Historic Weather Conditions — Data for Previous 24 hours

 ConditionsComfort  
Time TempWeatherWind HumidityBarometerVisibility
1:53 PM
Apr 18
65 °FSunny.13 mph17%29.83 "Hg10 mi
12:53 PM63 °FPassing clouds.N/A18%29.87 "Hg10 mi
11:53 AM63 °FSunny.N/A19%29.87 "Hg10 mi
10:53 AM60 °FSunny.13 mph22%29.90 "Hg10 mi
9:53 AM57 °FSunny.6 mph32%29.90 "Hg10 mi
8:53 AM51 °FSunny.3 mph33%29.90 "Hg10 mi
7:53 AM43 °FSunny.No wind49%29.94 "Hg10 mi
6:53 AM38 °FClear.7 mph53%29.94 "Hg10 mi
5:53 AM34 °FClear.No wind59%29.95 "Hg10 mi
4:53 AM35 °FClear.8 mph56%29.94 "Hg10 mi
3:53 AM35 °FClear.8 mph59%29.94 "Hg10 mi
2:53 AM35 °FClear.7 mph56%29.96 "Hg10 mi
1:53 AM34 °FClear.6 mph61%29.97 "Hg10 mi
12:53 AM34 °FClear.6 mph59%29.97 "Hg10 mi
11:53 PM
Apr 17
35 °FClear.8 mph59%29.97 "Hg10 mi
10:53 PM38 °FClear.5 mph53%29.96 "Hg10 mi
9:53 PM41 °FClear.8 mph45%29.97 "Hg10 mi
8:53 PM47 °FClear.8 mph34%29.94 "Hg10 mi
7:53 PM49 °FSunny.3 mph32%29.94 "Hg10 mi
6:53 PM53 °FPassing clouds.7 mph24%29.93 "Hg10 mi
5:53 PM56 °FScattered clouds.No wind21%29.91 "Hg10 mi
4:53 PM56 °FPassing clouds.7 mph20%29.90 "Hg10 mi
3:53 PM56 °FPartly sunny.N/A19%29.90 "Hg10 mi
2:53 PM55 °FSunny.N/A17%29.91 "Hg10 mi
Weather by CustomWeather, © 2014

See weather overview